Weather in Novostrojka

Russia / Khabarovsk Krai     47°51′01″N   134°57′23″E
temp.,
°C
wind,
m/s
gust,
m/s
humid.,
%
clouds,
%
prec.,
mm/h
press.,
hPa
HPBL,
m
26 october, tue
tue2601:00+5s3370100 0.0 101738
04:00+4sse237192 0.0 101628
07:00+3sse33755 0.0 101642
10:00+8s35565 0.0 1016250
13:00+14ssw354080 0.0 10141036
16:00+14sw464261 0.0 10121278
19:00+8s33625 0.0 101221
22:00+7sse357160 0.0 101163
27 october, wed
wed2701:00+6sse3577100 0.0 101075
04:00+7s337499 0.0 100963
07:00+7s3794100 2.9 1009200
10:00+7ssw3989100 3.8 1009461
13:00+10wsw566654 0.1 10081036
16:00+12wsw564815 0.1 10081599
19:00+7w3460100 0.0 100964
22:00+5wsw2265100 0.0 101016
28 october, thu
thu2801:00+4sw347593 0.0 101147
04:00+3wsw328292 0.0 101338
07:00+2w1185100 0.0 101612
10:00+4n278998 0.1 1019536
13:00+7nne456896 0.0 10201018
16:00+8ene1260100 0.0 1020300
19:00+6ssw247094 0.0 102372
22:00+3sw22814 0.0 102425
29 october, fri
fri2901:00+2ssw34800 0.0 102553
04:00+1sw34810 0.0 102563
07:000ssw34840 0.0 102651
10:00+5sw37610 0.0 1027347
13:00+10wsw56450 0.0 1026792
16:00+10wsw46420 0.0 1025876
19:00+6ssw33580 0.0 102521
22:00+4s33670 0.0 102527
30 october, sat
sat3001:00+3s22725 0.0 102518
04:00+2ssw227773 0.0 102517
07:00+1ssw2279100 0.0 102525
10:00+5wsw3764100 0.0 1026268
13:00+8wsw4550100 0.0 1025540
16:00+9w3551100 0.0 1026879
19:00+4w3350100 0.0 102737
22:00+2w115276 0.0 102810